This is the latest recevied weather packets stored in our database for station/object KQ4WWD. If no packets are shown the sender has not sent any weather packets the latest 10 day(s).
| Time | Temp. | Humidity | Pressure | Rain* | Wind** | Luminosity | Snow |
|---|---|---|---|---|---|---|---|
| 1777250021 | 24.44° C | 79% | 1011.1 hPa | 0 mm | - | 0 W/m² | - |
| 1777249718 | 24.44° C | 79% | 1011 hPa | 0 mm | - | 0 W/m² | - |
| 1777249413 | 25° C | 78% | 1011 hPa | 0 mm | - | 0 W/m² | - |
| 1777249111 | 25° C | 77% | 1010.8 hPa | 0 mm | - | 0 W/m² | - |
| 1777248807 | 25° C | 77% | 1010.8 hPa | 0 mm | - | 0 W/m² | - |
| 1777248504 | 25° C | 76% | 1010.5 hPa | 0 mm | - | 0 W/m² | - |
| 1777248201 | 25° C | 76% | 1010.2 hPa | 0 mm | - | 0 W/m² | - |
| 1777247900 | 25.56° C | 76% | 1010.1 hPa | 0 mm | - | 3 W/m² | - |
| 1777247595 | 25.56° C | 75% | 1010 hPa | 0 mm | - | 6 W/m² | - |
| 1777247294 | 25.56° C | 75% | 1010 hPa | 0 mm | - | 10 W/m² | - |
| 1777246992 | 25.56° C | 74% | 1009.8 hPa | 0 mm | - | 12 W/m² | - |
| 1777246688 | 26.11° C | 73% | 1010.1 hPa | 0 mm | - | 16 W/m² | - |
| 1777246384 | 26.11° C | 72% | 1010.1 hPa | 0 mm | - | 19 W/m² | - |
| 1777246081 | 26.11° C | 71% | 1010.2 hPa | 0 mm | - | 24 W/m² | - |
| 1777245779 | 26.67° C | 71% | 1009.9 hPa | 0 mm | - | 29 W/m² | - |
| 1777245476 | 26.67° C | 69% | 1010.1 hPa | 0 mm | - | 35 W/m² | - |
| 1777245172 | 27.22° C | 68% | 1009.8 hPa | 0 mm | - | 43 W/m² | - |
| 1777244868 | 27.78° C | 67% | 1009.8 hPa | 0 mm | - | 61 W/m² | - |
| 1777244563 | 27.78° C | 66% | 1009.7 hPa | 0 mm | - | 82 W/m² | - |
| 1777244260 | 27.78° C | 66% | 1009.7 hPa | 0 mm | - | 98 W/m² | - |
| 1777243959 | 27.78° C | 66% | 1009.7 hPa | 0 mm | - | 117 W/m² | - |
| 1777243655 | 27.78° C | 66% | 1009.7 hPa | 0 mm | - | 143 W/m² | - |
| 1777243353 | 27.78° C | 66% | 1009.7 hPa | 0 mm | - | 151 W/m² | - |
| 1777243047 | 27.78° C | 66% | 1009.8 hPa | 0 mm | - | 150 W/m² | - |
| 1777242745 | 28.33° C | 65% | 1009.7 hPa | 0 mm | - | 184 W/m² | - |
* Rain latest hour (hover to see other rain measurements)
** Current wind speed in m/s (hover to see current wind gust speed)